[[{"header":{"parameterUnit":"m.s-1","parameterCategory":2,"la1":30.2991,"la2":30.254,"lo1":-89.0895,"lo2":-89.0444,"dy":0.0017,"dx":0.0017,"nx":28,"ny":28,"refTime":"2026-02-14T03:00:00:Z","depth":"0","parameterNumber":2,"parameterNumberName":"U-component_of_CURRENTS"},"data":[0,0,0,0,0,0,0,0,0,0,0,0,0,0,0,0,0,0,0,0,0,0,0,0,0,0,0,0,0,0,0,0,0,0,0,0,0,0,0,0,0,0,0,0,0,0,0,0,0,0,0,0,0,0,0,0,0,0,-0.2313,-0.2313,0,-0.231,-0.231,-0.2309,-0.2258,-0.2257,-0.2256,-0.2255,-0.2206,-0.2206,-0.2206,0,0,0,0,0,0,0,0,0,0,0,0,0,-0.2253,-0.2254,-0.2312,-0.2313,-0.2313,-0.231,-0.231,-0.2309,-0.2258,-0.2257,-0.2255,-0.2254,-0.2207,-0.2206,-0.2206,0,0,0,0,0,0,0,0,0,0,0,0,0,-0.2265,-0.2255,-0.2312,-0.2289,-0.2287,-0.231,-0.231,-0.2309,-0.2258,-0.2257,-0.2255,-0.2254,-0.2207,-0.2206,-0.2206,-0.2235,0,0,-0.2204,-0.2204,0,0,0,0,0,0,0,0,-0.2264,-0.2267,-0.2292,-0.2291,-0.2289,-0.2285,-0.2271,-0.2283,-0.2259,-0.2266,-0.2255,-0.2253,-0.2232,-0.2229,-0.2229,-0.2232,-0.223,-0.2204,-0.2204,-0.2204,-0.2204,0,0,0,0,0,0,0,-0.2263,-0.2266,-0.2308,-0.2293,-0.2291,-0.2272,-0.2272,-0.2273,-0.2255,-0.2266,-0.2262,-0.2267,-0.223,-0.2229,-0.2227,-0.223,-0.2204,-0.2204,-0.2204,-0.2204,-0.2209,-0.2209,0,0,0,0,0,0,-0.2273,-0.2266,-0.2309,-0.2309,-0.2276,-0.2275,-0.2274,-0.2286,-0.2256,-0.2251,-0.2269,-0.2265,-0.2231,-0.2228,-0.2225,-0.2216,-0.2204,-0.2203,-0.2203,-0.2208,-0.2209,-0.2209,0,0,0,0,0,0,-0.2272,-0.2277,-0.2309,-0.2289,-0.2292,-0.2278,-0.2291,-0.2286,-0.2279,-0.2259,-0.2252,-0.2265,-0.2229,-0.2226,-0.2223,-0.2215,-0.2203,-0.2203,-0.2208,-0.2209,-0.2209,-0.2224,0,0,0,0,0,0,-0.227,-0.2277,-0.2285,-0.229,-0.2294,-0.2324,-0.2292,-0.2288,-0.2286,-0.2281,-0.2254,-0.2248,-0.2228,-0.2224,-0.2222,-0.2214,-0.2203,-0.2207,-0.2208,-0.2209,-0.2223,-0.2225,-0.2227,0,0,0,0,0,-0.2268,-0.2286,-0.2286,-0.2291,-0.2307,-0.2325,-0.2325,-0.2307,-0.2288,-0.2292,-0.2271,-0.2249,-0.2227,-0.2224,-0.2223,-0.2214,-0.2207,-0.2208,-0.2209,-0.2222,-0.2224,-0.2227,0,0,0,0,0,0,-0.2261,-0.2283,-0.2282,-0.2305,-0.2316,-0.2317,-0.232,-0.2312,-0.2301,-0.229,-0.2263,-0.2257,-0.2249,-0.2238,-0.2236,-0.2218,-0.221,-0.2211,-0.2221,-0.2223,-0.2225,-0.2202,-0.2202,0,0,0,0,0,-0.2268,-0.2286,-0.2303,-0.232,-0.2328,-0.2325,-0.2329,-0.2322,-0.2316,-0.2308,-0.2292,-0.2272,-0.2256,-0.2244,-0.2236,-0.2235,-0.2208,-0.2226,-0.2228,-0.2229,-0.221,-0.2177,-0.2173,-0.2212,-0.2212,-0.2212,0,0,-0.227,-0.2284,-0.2294,-0.232,-0.2323,-0.2328,-0.2322,-0.2333,-0.2325,-0.2307,-0.2291,-0.2285,-0.226,-0.2251,-0.2245,-0.2236,-0.2208,-0.2231,-0.2232,-0.2211,-0.2177,-0.2173,-0.2169,-0.2213,-0.2213,-0.2213,0,0,-0.2276,-0.2297,-0.2308,-0.2319,-0.2334,-0.2336,-0.2341,-0.2349,-0.2339,-0.2341,-0.2315,-0.23,-0.2292,-0.226,-0.2243,-0.2253,-0.2224,-0.226,-0.2242,-0.2211,-0.2206,-0.2202,-0.2175,-0.2168,-0.2254,-0.2254,-0.2254,0,-0.2275,-0.2282,-0.2314,-0.232,-0.2315,-0.2337,-0.2331,-0.2339,-0.2342,-0.2329,-0.2335,-0.2299,-0.2285,-0.2244,-0.2245,-0.2253,-0.2237,-0.2235,-0.2211,-0.2206,-0.2202,-0.2174,-0.2167,-0.2255,-0.2255,-0.2254,-0.2254,0,-0.2276,-0.2281,-0.2288,-0.2297,-0.2308,-0.2309,-0.2325,-0.2333,-0.233,-0.2326,-0.2305,-0.2294,-0.2262,-0.2264,-0.2256,-0.2217,-0.2219,-0.2222,-0.2201,-0.2198,-0.2171,-0.2162,-0.2256,-0.2256,-0.2255,-0.2255,0,0,-0.2258,-0.2281,-0.2277,-0.2268,-0.2286,-0.2292,-0.2296,-0.2291,-0.2282,-0.229,-0.2262,-0.2241,-0.2239,-0.222,-0.2213,-0.2186,-0.2152,-0.2193,-0.2191,-0.2159,-0.2087,-0.2,-0.1983,-0.2158,-0.2156,-0.2155,-0.2084,0,-0.2232,-0.2223,-0.2246,-0.223,-0.2217,-0.2243,-0.2245,-0.2252,-0.2259,-0.2253,-0.2235,-0.2218,-0.2222,-0.2213,-0.2186,-0.2169,-0.2129,-0.2171,-0.21,-0.2097,-0.2014,-0.1969,-0.1892,-0.1813,-0.2076,-0.2075,-0.2074,0,-0.2192,-0.2193,-0.2168,-0.2173,-0.2174,-0.2177,-0.2172,-0.2183,-0.2192,-0.2199,-0.2183,-0.2187,-0.215,-0.2162,-0.2099,-0.2131,-0.2099,-0.2082,-0.2079,-0.1978,-0.1993,-0.1857,-0.1788,-0.178,-0.206,-0.2062,-0.2062,0,-0.2113,-0.2123,-0.2093,-0.2093,-0.2121,-0.2116,-0.2132,-0.215,-0.2158,-0.2163,-0.2168,-0.2139,-0.2124,-0.2086,-0.2052,-0.208,-0.1982,-0.2015,-0.1896,-0.1891,-0.1795,-0.1783,-0.1695,-0.194,-0.194,-0.194,-0.1941,0,-0.2041,-0.2018,-0.2057,-0.2042,-0.2027,-0.2064,-0.2057,-0.208,-0.2106,-0.2105,-0.2132,-0.2115,-0.2105,-0.2061,-0.2032,-0.1924,-0.1957,-0.1863,-0.1851,-0.18,-0.1789,-0.1755,-0.1791,-0.1938,-0.1938,-0.1939,-0.1939,0,-0.1941,-0.1963,-0.1943,-0.1975,-0.1986,-0.1975,-0.2023,-0.2023,-0.2064,-0.2065,-0.2066,-0.2085,-0.2024,-0.1991,-0.1924,-0.1879,-0.1761,-0.175,-0.169,-0.1669,-0.1548,-0.1589,-0.1481,-0.1436,-0.1609,-0.1606,-0.1604,0,-0.1878,-0.1854,-0.1889,-0.1888,-0.19,-0.1909,-0.1918,-0.1982,-0.1995,-0.2034,-0.2023,-0.1986,-0.192,-0.1792,-0.171,-0.1603,-0.1634,-0.148,-0.1498,-0.1494,-0.1532,-0.1579,-0.1554,-0.1394,-0.139,-0.1387,-0.1385,0,-0.1764,-0.1784,-0.1784,-0.1788,-0.1797,-0.1811,-0.1835,-0.1846,-0.1915,-0.1914,-0.1889,-0.1838,-0.1729,-0.1579,-0.1454,-0.1394,-0.1447,-0.1408,-0.1417,-0.1343,-0.1375,-0.1343,-0.1509,-0.1356,-0.1359,-0.1361,-0.1363,-0.1364,-0.1681,-0.1665,-0.1676,-0.1669,-0.1686,-0.1687,-0.1656,-0.1693,-0.1687,-0.1648,-0.1707,-0.1591,-0.1507,-0.1309,-0.1239,-0.1126,-0.1208,-0.1106,-0.1154,-0.1201,-0.1147,-0.1238,-0.1063,-0.1064,-0.1065,-0.1066,-0.1067,0,-0.1564,-0.1562,-0.1553,-0.1548,-0.1518,-0.1567,-0.1573,-0.151,-0.1446,-0.1432,-0.1372,-0.1288,-0.1146,-0.1087,-0.0978,-0.091,-0.0911,-0.0901,-0.097,-0.0955,-0.103,-0.1008,-0.0795,-0.0795,-0.0795,-0.0795,-0.0795,-0.0795,-0.1505,-0.1459,-0.1458,-0.1372,-0.1364,-0.1278,-0.1249,-0.1169,-0.112,-0.0988,-0.0936,-0.0901,-0.0925,-0.1007,-0.091,-0.0849,-0.0858,-0.0816,-0.0854,-0.0945,-0.097,-0.0993,-0.0979,-0.0763,-0.0763,-0.0737,-0.0737,-0.0737]},{"header":{"parameterUnit":"m.s-1","parameterCategory":2,"la1":30.2991,"la2":30.254,"lo1":-89.0895,"lo2":-89.0444,"dy":0.0017,"dx":0.0017,"nx":28,"ny":28,"refTime":"2026-02-14T03:00:00:Z","depth":"0","parameterNumber":3,"parameterNumberName":"V-component_of_CURRENTS"},"data":[0,0,0,0,0,0,0,0,0,0,0,0,0,0,0,0,0,0,0,0,0,0,0,0,0,0,0,0,0,0,0,0,0,0,0,0,0,0,0,0,0,0,0,0,0,0,0,0,0,0,0,0,0,0,0,0,0,0,0.0119,0.0119,0,0.0184,0.0184,0.0185,0.0246,0.0247,0.0247,0.0248,0.0307,0.0308,0.0309,0,0,0,0,0,0,0,0,0,0,0,0,0,0.0073,0.0073,0.0119,0.0119,0.012,0.0183,0.0185,0.0186,0.0246,0.0247,0.0247,0.0248,0.0307,0.0308,0.0309,0,0,0,0,0,0,0,0,0,0,0,0,0,0.0113,0.0074,0.0119,0.0156,0.0159,0.0183,0.0185,0.0186,0.0246,0.0247,0.0248,0.0248,0.0306,0.0308,0.031,0.0306,0,0,0.0315,0.0315,0,0,0,0,0,0,0,0,0.0111,0.0115,0.015,0.0153,0.0157,0.0205,0.019,0.0225,0.0246,0.0216,0.0248,0.0249,0.027,0.0275,0.029,0.0308,0.0311,0.0315,0.0316,0.0317,0.0317,0,0,0,0,0,0,0,0.0108,0.0113,0.0148,0.015,0.0155,0.0177,0.0184,0.0197,0.0241,0.0219,0.0223,0.0225,0.0272,0.0288,0.0291,0.0312,0.0315,0.0316,0.0317,0.0318,0.0353,0.0353,0,0,0,0,0,0,0.0092,0.011,0.0145,0.0149,0.0132,0.0177,0.0185,0.0191,0.0241,0.0248,0.0224,0.0227,0.0285,0.0289,0.0294,0.0292,0.0317,0.0318,0.0319,0.0353,0.0353,0.0353,0,0,0,0,0,0,0.0091,0.0095,0.0143,0.0129,0.0136,0.0176,0.0184,0.0192,0.0207,0.0244,0.0252,0.023,0.0285,0.0291,0.0306,0.0294,0.0319,0.0321,0.0353,0.0353,0.0353,0.0288,0,0,0,0,0,0,0.0089,0.0094,0.0096,0.0127,0.0136,0.0149,0.0183,0.0193,0.0206,0.0211,0.0251,0.0258,0.0286,0.0303,0.0308,0.0297,0.0322,0.0353,0.0353,0.0353,0.029,0.0285,0.0281,0,0,0,0,0,0.0087,0.0077,0.0096,0.0101,0.0137,0.0148,0.0154,0.0188,0.0205,0.0206,0.0238,0.0257,0.0306,0.0304,0.031,0.0299,0.0353,0.0353,0.0353,0.0292,0.0286,0.0281,0,0,0,0,0,0,0.0062,0.0083,0.0105,0.0104,0.0123,0.0157,0.0154,0.018,0.0207,0.0211,0.0252,0.026,0.0271,0.0294,0.0292,0.0311,0.0334,0.0335,0.0286,0.0281,0.0277,0.0247,0.0323,0,0,0,0,0,0.0056,0.0051,0.0081,0.008,0.0084,0.012,0.0129,0.0152,0.0177,0.019,0.0218,0.025,0.0274,0.0284,0.0309,0.0312,0.0341,0.0312,0.0307,0.0303,0.0284,0.0321,0.0318,0.0352,0.0352,0.0352,0,0,0.0046,0.0055,0.0055,0.0074,0.0089,0.0082,0.0127,0.0131,0.0133,0.019,0.0195,0.0233,0.0273,0.0284,0.029,0.03,0.0313,0.0303,0.0299,0.0282,0.0321,0.0317,0.0314,0.0352,0.0352,0.0352,0,0,0.0005,0.0029,0.0006,0.0013,0.0027,0.0051,0.0048,0.0078,0.01,0.0115,0.0157,0.0183,0.0219,0.0244,0.0263,0.0247,0.029,0.0261,0.0212,0.0248,0.0245,0.0242,0.0289,0.0291,0.0257,0.0257,0.0257,0,-0.001,-0.003,0.0002,-0.0023,-0.0027,0.0029,0.0002,0.0031,0.0067,0.0078,0.0107,0.0166,0.0198,0.0212,0.021,0.0234,0.0268,0.0226,0.024,0.0239,0.0237,0.0286,0.0289,0.0254,0.0254,0.0255,0.0255,0,-0.0072,-0.0086,-0.0105,-0.0115,-0.0109,-0.0125,-0.0087,-0.007,-0.0033,0.0,0.003,0.0086,0.012,0.014,0.0169,0.0175,0.0208,0.0231,0.0248,0.023,0.0283,0.0287,0.0249,0.0251,0.0252,0.0252,0,0,-0.0125,-0.0146,-0.0155,-0.0171,-0.0162,-0.0164,-0.0163,-0.0144,-0.0136,-0.0085,-0.0073,-0.0025,0.0018,0.0041,0.009,0.0118,0.0147,0.0163,0.0166,0.0199,0.0237,0.0276,0.0286,0.0176,0.0176,0.0176,0.0283,0,-0.0189,-0.0256,-0.0244,-0.0294,-0.0322,-0.0276,-0.0277,-0.0245,-0.0197,-0.0166,-0.0098,-0.0065,-0.0021,0.0004,0.0036,0.0125,0.0154,0.0116,0.0258,0.0262,0.0291,0.029,0.0324,0.0423,0.0288,0.0289,0.0289,0,-0.0266,-0.0298,-0.0365,-0.0381,-0.0388,-0.0398,-0.0382,-0.0371,-0.0308,-0.0269,-0.0221,-0.0154,-0.0102,-0.0056,0.0063,0.004,0.0119,0.0188,0.0195,0.025,0.0309,0.0418,0.0437,0.0554,0.0297,0.0296,0.0296,0,-0.0334,-0.0384,-0.0438,-0.0449,-0.0454,-0.0463,-0.0453,-0.0406,-0.0391,-0.0329,-0.03,-0.0224,-0.0164,-0.0072,0.0075,0.007,0.022,0.0237,0.0344,0.0349,0.0413,0.0422,0.0549,0.0303,0.0303,0.0302,0.0302,0,-0.0418,-0.0459,-0.0471,-0.0503,-0.0545,-0.0522,-0.0539,-0.0511,-0.0465,-0.044,-0.0357,-0.0305,-0.0165,-0.0051,0.006,0.0226,0.0214,0.0329,0.0373,0.0394,0.04,0.0533,0.0573,0.0306,0.0306,0.0305,0.0304,0,-0.0485,-0.0501,-0.0556,-0.0575,-0.058,-0.0606,-0.0597,-0.0597,-0.0545,-0.0507,-0.0489,-0.0358,-0.0202,-0.0052,0.0128,0.0222,0.0447,0.0424,0.0444,0.0487,0.0673,0.0708,0.086,0.0941,0.0548,0.0549,0.055,0,-0.0526,-0.0564,-0.0608,-0.0637,-0.0647,-0.0672,-0.0681,-0.0644,-0.0632,-0.0525,-0.0506,-0.0351,-0.0216,0.0063,0.025,0.0452,0.0537,0.0591,0.0572,0.0684,0.0756,0.0777,0.0835,0.0646,0.0648,0.065,0.0651,0,-0.0588,-0.06,-0.064,-0.0704,-0.0731,-0.0757,-0.0761,-0.076,-0.0692,-0.0626,-0.0495,-0.0375,-0.0104,0.0155,0.0404,0.0523,0.0682,0.0629,0.0745,0.0834,0.0866,0.0965,0.0582,0.0665,0.0664,0.0663,0.0662,0.0661,-0.0616,-0.0658,-0.0706,-0.0761,-0.0797,-0.0818,-0.081,-0.0768,-0.0711,-0.054,-0.0479,-0.0217,0.0079,0.0444,0.0574,0.0849,0.0815,0.0933,0.0966,0.0977,0.1048,0.0693,0.082,0.082,0.0819,0.0819,0.0818,0,-0.0641,-0.0691,-0.0756,-0.0813,-0.0849,-0.0852,-0.0839,-0.077,-0.0649,-0.0455,-0.0285,0.0101,0.0409,0.069,0.1026,0.1179,0.1211,0.1256,0.1298,0.1343,0.104,0.1036,0.1216,0.1216,0.1216,0.1216,0.1216,0.1216,-0.0654,-0.0722,-0.0761,-0.0831,-0.0864,-0.0849,-0.0819,-0.0673,-0.051,-0.0162,0.0134,0.0333,0.0686,0.1139,0.1456,0.1488,0.1629,0.1611,0.1688,0.1478,0.145,0.1423,0.1432,0.1691,0.1692,0.1993,0.1995,0.1998]}],[{"header":{"parameterUnit":"m.s-1","parameterCategory":2,"la1":30.2991,"la2":30.254,"lo1":-89.0895,"lo2":-89.0444,"dy":0.0017,"dx":0.0017,"nx":28,"ny":28,"refTime":"2026-02-14T03:00:00:Z","depth":"2","parameterNumber":2,"parameterNumberName":"U-component_of_CURRENTS"},"data":[0,0,0,0,0,0,0,0,0,0,0,0,0,0,0,0,0,0,0,0,0,0,0,0,0,0,0,0,0,0,0,0,0,0,0,0,0,0,0,0,0,0,0,0,0,0,0,0,0,0,0,0,0,0,0,0,0,0,-0.183,-0.183,0,-0.1865,-0.1865,-0.1865,-0.1853,-0.1852,-0.1851,-0.1851,-0.1859,-0.186,-0.1861,0,0,0,0,0,0,0,0,0,0,0,0,0,-0.1781,-0.1781,-0.183,-0.183,-0.1831,-0.1865,-0.1865,-0.1865,-0.1853,-0.1852,-0.1851,-0.1851,-0.1859,-0.186,-0.1861,0,0,0,0,0,0,0,0,0,0,0,0,0,-0.1805,-0.1781,-0.1829,-0.183,-0.1831,-0.1865,-0.1865,-0.1865,-0.1853,-0.1852,-0.1851,-0.185,-0.1859,-0.186,-0.1861,-0.1885,0,0,-0.1864,-0.1865,0,0,0,0,0,0,0,0,-0.1804,-0.1807,-0.183,-0.183,-0.1831,-0.1855,-0.1851,-0.1871,-0.1853,-0.1842,-0.1851,-0.185,-0.1858,-0.1859,-0.1864,-0.1886,-0.1886,-0.1864,-0.1865,-0.1866,-0.1866,0,0,0,0,0,0,0,-0.1802,-0.1805,-0.1841,-0.183,-0.1831,-0.1839,-0.1841,-0.1855,-0.1852,-0.1843,-0.1843,-0.1851,-0.1857,-0.1863,-0.1864,-0.1886,-0.1864,-0.1865,-0.1866,-0.1867,-0.1919,-0.192,0,0,0,0,0,0,-0.1802,-0.1804,-0.184,-0.1842,-0.1818,-0.1841,-0.1843,-0.1847,-0.1852,-0.1853,-0.1851,-0.185,-0.1862,-0.1863,-0.1865,-0.1889,-0.1866,-0.1867,-0.1867,-0.1918,-0.1919,-0.192,0,0,0,0,0,0,-0.1801,-0.1805,-0.1839,-0.1826,-0.1831,-0.1843,-0.1847,-0.1848,-0.1857,-0.186,-0.1859,-0.186,-0.1861,-0.1863,-0.1883,-0.1889,-0.1867,-0.1868,-0.1918,-0.1919,-0.192,-0.194,0,0,0,0,0,0,-0.1799,-0.1804,-0.1807,-0.1826,-0.1832,-0.1862,-0.1848,-0.1849,-0.1864,-0.1862,-0.1867,-0.1866,-0.1861,-0.1881,-0.1884,-0.189,-0.1869,-0.1917,-0.1918,-0.1919,-0.1939,-0.1942,-0.1945,0,0,0,0,0,-0.1797,-0.1808,-0.1807,-0.1811,-0.1835,-0.1863,-0.1866,-0.187,-0.1865,-0.1874,-0.1878,-0.1866,-0.1891,-0.1883,-0.1886,-0.1893,-0.1916,-0.1918,-0.1919,-0.1937,-0.1941,-0.1945,0,0,0,0,0,0,-0.1786,-0.1808,-0.1807,-0.1823,-0.1842,-0.1861,-0.1872,-0.1877,-0.1888,-0.1886,-0.1882,-0.1883,-0.19,-0.1899,-0.189,-0.1912,-0.1899,-0.1902,-0.1912,-0.1916,-0.1919,-0.191,-0.187,0,0,0,0,0,-0.1787,-0.1797,-0.1821,-0.1831,-0.1843,-0.1859,-0.1871,-0.1877,-0.1891,-0.1894,-0.19,-0.1904,-0.1911,-0.1915,-0.1922,-0.1941,-0.1923,-0.1946,-0.1949,-0.1951,-0.1947,-0.1931,-0.1932,-0.1925,-0.1925,-0.1925,0,0,-0.1783,-0.1798,-0.1802,-0.183,-0.1843,-0.1866,-0.1863,-0.1887,-0.1902,-0.1895,-0.1916,-0.1919,-0.1919,-0.1935,-0.1942,-0.1934,-0.1944,-0.1953,-0.1955,-0.1949,-0.1933,-0.1933,-0.1934,-0.1927,-0.1926,-0.1926,0,0,-0.1787,-0.1798,-0.1811,-0.1832,-0.1861,-0.1875,-0.1884,-0.1911,-0.1918,-0.1944,-0.1937,-0.1945,-0.1964,-0.196,-0.196,-0.1987,-0.1961,-0.1991,-0.1998,-0.1983,-0.1983,-0.1983,-0.1957,-0.1954,-0.199,-0.199,-0.199,0,-0.1781,-0.18,-0.1819,-0.1843,-0.186,-0.188,-0.1901,-0.1918,-0.1946,-0.1952,-0.1952,-0.197,-0.1972,-0.1979,-0.1986,-0.1992,-0.1976,-0.1983,-0.1985,-0.1985,-0.1984,-0.1958,-0.1954,-0.1992,-0.1991,-0.1991,-0.1991,0,-0.1797,-0.1816,-0.183,-0.186,-0.1883,-0.1906,-0.1935,-0.1955,-0.1966,-0.1977,-0.1992,-0.1997,-0.2001,-0.2006,-0.2005,-0.2005,-0.1992,-0.1991,-0.1973,-0.1986,-0.1958,-0.1954,-0.1993,-0.1993,-0.1992,-0.1992,0,0,-0.1769,-0.1827,-0.183,-0.1846,-0.1894,-0.1911,-0.1944,-0.197,-0.1982,-0.2004,-0.2012,-0.2025,-0.2021,-0.2022,-0.202,-0.201,-0.1994,-0.2,-0.1999,-0.1968,-0.1951,-0.1871,-0.1859,-0.1993,-0.1993,-0.1992,-0.1931,0,-0.1772,-0.1811,-0.1843,-0.1876,-0.1897,-0.1931,-0.1957,-0.1984,-0.2002,-0.2018,-0.202,-0.2029,-0.2029,-0.2029,-0.2021,-0.2006,-0.1985,-0.201,-0.1948,-0.1946,-0.1868,-0.1852,-0.1731,-0.1661,-0.1927,-0.1927,-0.1926,0,-0.1772,-0.1799,-0.1831,-0.1879,-0.1891,-0.1913,-0.1947,-0.1975,-0.2005,-0.2019,-0.2028,-0.2032,-0.203,-0.2025,-0.1993,-0.2009,-0.1978,-0.1961,-0.1958,-0.1871,-0.1858,-0.1692,-0.1643,-0.1919,-0.192,-0.192,-0.1921,0,-0.1732,-0.1788,-0.1808,-0.1827,-0.1886,-0.19,-0.1928,-0.1966,-0.1986,-0.2013,-0.2022,-0.2026,-0.2019,-0.1996,-0.1964,-0.1978,-0.1916,-0.193,-0.1824,-0.1818,-0.1695,-0.1678,-0.1889,-0.1889,-0.1889,-0.189,-0.189,0,-0.1718,-0.1733,-0.1789,-0.18,-0.182,-0.1871,-0.1892,-0.1924,-0.1963,-0.1975,-0.2011,-0.2008,-0.2011,-0.1982,-0.1956,-0.1868,-0.1904,-0.1811,-0.1792,-0.1699,-0.1684,-0.1897,-0.1899,-0.1887,-0.1888,-0.1888,-0.1889,0,-0.1665,-0.1709,-0.1731,-0.1785,-0.1801,-0.1811,-0.1868,-0.188,-0.193,-0.1945,-0.1952,-0.1984,-0.1942,-0.1925,-0.1878,-0.1837,-0.1777,-0.1733,-0.1617,-0.1585,-0.1692,-0.1696,-0.1611,-0.1607,-0.1605,-0.1602,-0.16,0,-0.1639,-0.1645,-0.1699,-0.1707,-0.1729,-0.1758,-0.1775,-0.1846,-0.1864,-0.1918,-0.1914,-0.1899,-0.1853,-0.1758,-0.1684,-0.1596,-0.1675,-0.1446,-0.1447,-0.1671,-0.1662,-0.167,-0.1678,-0.1295,-0.1291,-0.1287,-0.1284,0,-0.1576,-0.1596,-0.1612,-0.163,-0.1649,-0.1673,-0.1707,-0.1719,-0.1793,-0.1803,-0.1795,-0.1764,-0.168,-0.153,-0.143,-0.1374,-0.1454,-0.1368,-0.1619,-0.1386,-0.1368,-0.1361,-0.138,-0.1252,-0.1255,-0.1258,-0.126,-0.1261,-0.1514,-0.1508,-0.1528,-0.1533,-0.1556,-0.156,-0.1537,-0.1581,-0.1584,-0.1568,-0.1622,-0.1524,-0.1496,-0.1259,-0.1173,-0.1108,-0.1213,-0.1173,-0.1186,-0.1202,-0.1178,-0.1156,-0.0996,-0.0997,-0.0999,-0.1,-0.1001,0,-0.1423,-0.1425,-0.1427,-0.143,-0.1405,-0.1454,-0.1462,-0.1413,-0.1366,-0.1378,-0.1336,-0.1169,-0.1052,-0.1026,-0.0866,-0.0827,-0.0841,-0.0801,-0.0832,-0.0863,-0.0891,-0.0854,-0.0584,-0.0583,-0.0582,-0.0581,0,0,-0.1377,-0.1342,-0.1341,-0.1267,-0.1263,-0.1187,-0.116,-0.111,-0.1084,-0.1003,-0.0952,-0.0996,-0.0997,-0.0799,-0.0745,-0.0638,-0.0747,-0.0601,-0.0936,-0.1004,-0.103,-0.1102,-0.1079,0,0,0,0,0]},{"header":{"parameterUnit":"m.s-1","parameterCategory":2,"la1":30.2991,"la2":30.254,"lo1":-89.0895,"lo2":-89.0444,"dy":0.0017,"dx":0.0017,"nx":28,"ny":28,"refTime":"2026-02-14T03:00:00:Z","depth":"2","parameterNumber":3,"parameterNumberName":"V-component_of_CURRENTS"},"data":[0,0,0,0,0,0,0,0,0,0,0,0,0,0,0,0,0,0,0,0,0,0,0,0,0,0,0,0,0,0,0,0,0,0,0,0,0,0,0,0,0,0,0,0,0,0,0,0,0,0,0,0,0,0,0,0,0,0,-0.0399,-0.0398,0,-0.0353,-0.0353,-0.0352,-0.0314,-0.0314,-0.0313,-0.0313,-0.0213,-0.0211,-0.0208,0,0,0,0,0,0,0,0,0,0,0,0,0,-0.0412,-0.0412,-0.0399,-0.0398,-0.0398,-0.0353,-0.0353,-0.0352,-0.0314,-0.0314,-0.0313,-0.0313,-0.0214,-0.0211,-0.0208,0,0,0,0,0,0,0,0,0,0,0,0,0,-0.039,-0.0412,-0.0399,-0.0374,-0.0371,-0.0354,-0.0353,-0.0352,-0.0314,-0.0314,-0.0313,-0.0313,-0.0214,-0.0211,-0.0208,-0.0197,0,0,-0.0197,-0.0195,0,0,0,0,0,0,0,0,-0.0391,-0.0389,-0.0378,-0.0376,-0.0373,-0.0339,-0.032,-0.0298,-0.0314,-0.0335,-0.0313,-0.0312,-0.0251,-0.0244,-0.0237,-0.0192,-0.0188,-0.0197,-0.0195,-0.0193,-0.0192,0,0,0,0,0,0,0,-0.0393,-0.0391,-0.038,-0.0378,-0.0374,-0.0351,-0.0347,-0.0316,-0.0295,-0.0334,-0.0331,-0.0327,-0.0249,-0.0241,-0.0234,-0.0187,-0.0197,-0.0194,-0.0191,-0.019,-0.0107,-0.0107,0,0,0,0,0,0,-0.0402,-0.0393,-0.0382,-0.0379,-0.0381,-0.0351,-0.0347,-0.035,-0.0297,-0.0289,-0.0327,-0.0325,-0.0247,-0.0238,-0.023,-0.0198,-0.0193,-0.019,-0.0188,-0.0107,-0.0107,-0.0107,0,0,0,0,0,0,-0.0403,-0.0402,-0.0384,-0.0385,-0.0381,-0.0352,-0.0355,-0.035,-0.0338,-0.0293,-0.0283,-0.0321,-0.0246,-0.0235,-0.02,-0.0195,-0.0188,-0.0185,-0.0107,-0.0107,-0.0107,-0.0145,0,0,0,0,0,0,-0.0404,-0.0403,-0.041,-0.0386,-0.0381,-0.0375,-0.0355,-0.0349,-0.0336,-0.0333,-0.0284,-0.0274,-0.0245,-0.0206,-0.0197,-0.019,-0.0182,-0.0107,-0.0107,-0.0107,-0.0143,-0.0146,-0.0148,0,0,0,0,0,-0.0404,-0.0415,-0.0411,-0.0409,-0.0392,-0.0375,-0.0371,-0.0348,-0.0337,-0.0334,-0.03,-0.0276,-0.0198,-0.0203,-0.0193,-0.0184,-0.0107,-0.0107,-0.0107,-0.0143,-0.0145,-0.0148,0,0,0,0,0,0,-0.0423,-0.0412,-0.0406,-0.0413,-0.0397,-0.0369,-0.0366,-0.035,-0.0322,-0.0317,-0.0274,-0.0262,-0.023,-0.0203,-0.021,-0.016,-0.0149,-0.0146,-0.0179,-0.0182,-0.0184,-0.019,-0.0179,0,0,0,0,0,-0.0432,-0.0439,-0.042,-0.0426,-0.0419,-0.0394,-0.0385,-0.0369,-0.0342,-0.0329,-0.0294,-0.0256,-0.0222,-0.0199,-0.0168,-0.014,-0.0108,-0.0128,-0.013,-0.0132,-0.013,-0.0082,-0.0079,-0.0106,-0.0106,-0.0106,0,0,-0.0441,-0.0437,-0.044,-0.0431,-0.0416,-0.0409,-0.0387,-0.0376,-0.0365,-0.0322,-0.0295,-0.0263,-0.0218,-0.0187,-0.017,-0.0162,-0.0108,-0.0131,-0.0133,-0.013,-0.0081,-0.0078,-0.0076,-0.0106,-0.0106,-0.0106,0,0,-0.0459,-0.0457,-0.0467,-0.0457,-0.0441,-0.0424,-0.0422,-0.0394,-0.0376,-0.0351,-0.0316,-0.0278,-0.0231,-0.0193,-0.0169,-0.0162,-0.0124,-0.0156,-0.0165,-0.0118,-0.0116,-0.0113,-0.0074,-0.0067,-0.0152,-0.0152,-0.0152,0,-0.047,-0.048,-0.0466,-0.0469,-0.0462,-0.0432,-0.0433,-0.0412,-0.0375,-0.0357,-0.0347,-0.027,-0.0232,-0.0184,-0.0183,-0.0165,-0.0139,-0.016,-0.0121,-0.0118,-0.0114,-0.0075,-0.0067,-0.0154,-0.0154,-0.0154,-0.0154,0,-0.0492,-0.0498,-0.0501,-0.0497,-0.0487,-0.0484,-0.0454,-0.0437,-0.0413,-0.0386,-0.0341,-0.0289,-0.024,-0.0223,-0.02,-0.0156,-0.0145,-0.0134,-0.0117,-0.0114,-0.0072,-0.0064,-0.0157,-0.0156,-0.0156,-0.0155,0,0,-0.0521,-0.0518,-0.0519,-0.0523,-0.0502,-0.0498,-0.0478,-0.0451,-0.0436,-0.0392,-0.0364,-0.0301,-0.0272,-0.0242,-0.0203,-0.016,-0.0113,-0.0141,-0.0138,-0.0106,-0.0016,0.0004,0.0016,-0.0098,-0.0096,-0.0095,0.0002,0,-0.0541,-0.056,-0.0547,-0.0556,-0.0561,-0.0529,-0.0515,-0.0485,-0.045,-0.0415,-0.035,-0.0312,-0.0279,-0.0257,-0.0207,-0.0139,-0.0091,-0.014,-0.002,-0.0016,-0.0002,0.0026,0.0012,0.0099,0.0011,0.0012,0.0013,0,-0.0564,-0.0576,-0.0593,-0.0591,-0.0589,-0.0587,-0.0561,-0.0544,-0.0483,-0.0455,-0.0398,-0.0349,-0.0275,-0.0253,-0.0125,-0.0161,-0.0091,-0.0037,-0.0031,0.0008,0.002,0.0084,0.0118,0.0028,0.0027,0.0026,0.0025,0,-0.0597,-0.0605,-0.0623,-0.0622,-0.0613,-0.0611,-0.0602,-0.0557,-0.0542,-0.0478,-0.0456,-0.0364,-0.0316,-0.0219,-0.0103,-0.0114,0.0036,0.0038,0.0125,0.0127,0.0151,0.0152,0.0133,0.0133,0.0132,0.0132,0.0132,0,-0.0624,-0.0637,-0.0642,-0.0653,-0.0674,-0.065,-0.0654,-0.0627,-0.0584,-0.0562,-0.0481,-0.0436,-0.0306,-0.0204,-0.0104,0.0042,0.0042,0.0134,0.0159,0.0136,0.0136,0.0101,0.0096,0.0136,0.0135,0.0134,0.0134,0,-0.0654,-0.0656,-0.0681,-0.0687,-0.0691,-0.0707,-0.0703,-0.07,-0.0652,-0.0619,-0.06,-0.0483,-0.0346,-0.021,-0.0043,0.0042,0.0175,0.0226,0.0187,0.0206,0.0233,0.0224,0.0332,0.0334,0.0335,0.0336,0.0337,0,-0.067,-0.0686,-0.0717,-0.0741,-0.0748,-0.0765,-0.0776,-0.0742,-0.0733,-0.0641,-0.0625,-0.0488,-0.0375,-0.0123,0.0047,0.0233,0.0227,0.0321,0.0303,0.0242,0.0256,0.0246,0.0236,0.032,0.0321,0.0322,0.0322,0,-0.07,-0.0713,-0.0739,-0.0793,-0.0819,-0.0844,-0.085,-0.0854,-0.0799,-0.0743,-0.0641,-0.0539,-0.0295,-0.0083,0.0149,0.0253,0.0288,0.034,0.0307,0.0264,0.0237,0.0248,0.0238,0.0328,0.0327,0.0327,0.0326,0.0326,-0.0721,-0.0755,-0.0794,-0.0842,-0.0878,-0.0908,-0.092,-0.0902,-0.0866,-0.0762,-0.0659,-0.0476,-0.0281,0.0061,0.0223,0.0367,0.036,0.0398,0.0394,0.0389,0.0363,0.034,0.0444,0.0444,0.0444,0.0444,0.0444,0,-0.0747,-0.0787,-0.084,-0.0897,-0.0941,-0.0944,-0.0957,-0.0937,-0.0883,-0.0754,-0.062,-0.0374,-0.0131,0.0066,0.0303,0.044,0.0422,0.0458,0.0409,0.0403,0.0398,0.0369,0.0454,0.0454,0.0454,0.0455,0,0,-0.0763,-0.082,-0.085,-0.0931,-0.097,-0.1001,-0.1002,-0.0945,-0.0852,-0.0703,-0.0553,-0.0361,-0.0118,0.0051,0.0226,0.0347,0.0336,0.0356,0.0336,0.0252,0.0245,0.0354,0.0303,0,0,0,0,0]}],[{"header":{"parameterUnit":"m.s-1","parameterCategory":2,"la1":30.2991,"la2":30.254,"lo1":-89.0895,"lo2":-89.0444,"dy":0.0017,"dx":0.0017,"nx":28,"ny":28,"refTime":"2026-02-14T03:00:00:Z","depth":"4","parameterNumber":2,"parameterNumberName":"U-component_of_CURRENTS"},"data":[0,0,0,0,0,0,0,0,0,0,0,0,0,0,0,0,0,0,0,0,0,0,0,0,0,0,0,0,0,0,0,0,0,0,0,0,0,0,0,0,0,0,0,0,0,0,0,0,0,0,0,0,0,0,0,0,0,0,-0.1199,-0.1199,0,-0.1252,-0.1253,-0.1253,-0.1286,-0.1286,-0.1286,-0.1287,-0.1353,-0.1355,-0.1356,0,0,0,0,0,0,0,0,0,0,0,0,0,-0.1138,-0.1139,-0.1199,-0.1199,-0.12,-0.1252,-0.1253,-0.1253,-0.1286,-0.1286,-0.1286,-0.1287,-0.1353,-0.1354,-0.1356,0,0,0,0,0,0,0,0,0,0,0,0,0,-0.1174,-0.1139,-0.1198,-0.1223,-0.1226,-0.1252,-0.1253,-0.1253,-0.1286,-0.1286,-0.1287,-0.1287,-0.1352,-0.1354,-0.1356,-0.1363,0,0,-0.1363,-0.1365,0,0,0,0,0,0,0,0,-0.1172,-0.1176,-0.1219,-0.1221,-0.1225,-0.1263,-0.1256,-0.1291,-0.1286,-0.1262,-0.1287,-0.1287,-0.1324,-0.1329,-0.1337,-0.1367,-0.1369,-0.1364,-0.1365,-0.1366,-0.1367,0,0,0,0,0,0,0,-0.1169,-0.1174,-0.1219,-0.122,-0.1223,-0.1236,-0.1241,-0.1262,-0.129,-0.1264,-0.1267,-0.1274,-0.1326,-0.1335,-0.1339,-0.137,-0.1364,-0.1366,-0.1367,-0.1368,-0.1464,-0.1465,0,0,0,0,0,0,-0.1163,-0.1172,-0.1217,-0.1221,-0.12,-0.1237,-0.1243,-0.125,-0.129,-0.1296,-0.1274,-0.1275,-0.1331,-0.1336,-0.1341,-0.1408,-0.1366,-0.1368,-0.137,-0.1463,-0.1464,-0.1466,0,0,0,0,0,0,-0.1162,-0.1167,-0.1215,-0.1198,-0.1205,-0.1238,-0.1245,-0.1251,-0.1281,-0.1297,-0.1304,-0.1301,-0.1331,-0.1338,-0.1382,-0.1409,-0.1369,-0.1371,-0.1462,-0.1463,-0.1465,-0.1506,0,0,0,0,0,0,-0.116,-0.1166,-0.1179,-0.1198,-0.1206,-0.1246,-0.1245,-0.1252,-0.1284,-0.1287,-0.1322,-0.1327,-0.1332,-0.1379,-0.1384,-0.1411,-0.1373,-0.146,-0.1462,-0.1464,-0.1503,-0.1508,-0.1513,0,0,0,0,0,-0.1158,-0.1171,-0.1179,-0.1185,-0.1219,-0.1247,-0.1253,-0.1276,-0.1285,-0.1304,-0.1329,-0.1328,-0.1396,-0.1382,-0.1388,-0.1416,-0.1459,-0.1462,-0.1464,-0.15,-0.1507,-0.1513,0,0,0,0,0,0,-0.1152,-0.1176,-0.1185,-0.1206,-0.1232,-0.1253,-0.1275,-0.1289,-0.1323,-0.1334,-0.1345,-0.1353,-0.14,-0.1403,-0.1387,-0.145,-0.1426,-0.143,-0.1452,-0.1458,-0.1464,-0.146,-0.1375,0,0,0,0,0,-0.1155,-0.1174,-0.1197,-0.1217,-0.1232,-0.1257,-0.1275,-0.1293,-0.132,-0.1337,-0.1361,-0.1387,-0.1412,-0.1432,-0.1453,-0.149,-0.1474,-0.1512,-0.1517,-0.1521,-0.1523,-0.1523,-0.1528,-0.1474,-0.1474,-0.1474,0,0,-0.1159,-0.1175,-0.1187,-0.1218,-0.124,-0.127,-0.127,-0.1306,-0.1337,-0.1339,-0.1394,-0.141,-0.1427,-0.1468,-0.1489,-0.1477,-0.1527,-0.1525,-0.1528,-0.1528,-0.1526,-0.1531,-0.1535,-0.1476,-0.1476,-0.1475,0,0,-0.1173,-0.1192,-0.1213,-0.1238,-0.1276,-0.1293,-0.1308,-0.1345,-0.137,-0.1418,-0.1426,-0.1458,-0.1502,-0.1517,-0.1528,-0.1576,-0.1555,-0.1587,-0.1614,-0.1614,-0.1618,-0.1621,-0.1599,-0.16,-0.1589,-0.159,-0.159,0,-0.1178,-0.1206,-0.1225,-0.1253,-0.1279,-0.1306,-0.1338,-0.1367,-0.1416,-0.1437,-0.1443,-0.1506,-0.1523,-0.1564,-0.1583,-0.1589,-0.1576,-0.1588,-0.1619,-0.1622,-0.1625,-0.1602,-0.1602,-0.1592,-0.1592,-0.1591,-0.1591,0,-0.1203,-0.1236,-0.1253,-0.1297,-0.1326,-0.1361,-0.1399,-0.1436,-0.1468,-0.1491,-0.1545,-0.1566,-0.1598,-0.1613,-0.1616,-0.165,-0.163,-0.1625,-0.16,-0.1633,-0.1606,-0.1606,-0.1595,-0.1594,-0.1594,-0.1593,0,0,-0.1187,-0.1257,-0.1266,-0.1295,-0.1354,-0.1378,-0.1435,-0.1484,-0.1516,-0.1563,-0.16,-0.1649,-0.1654,-0.1668,-0.1675,-0.1681,-0.1691,-0.1667,-0.1666,-0.1639,-0.1675,-0.1557,-0.1545,-0.1692,-0.1692,-0.1693,-0.1645,0,-0.1203,-0.126,-0.1294,-0.1354,-0.1386,-0.1432,-0.1477,-0.1526,-0.1566,-0.1607,-0.1635,-0.1672,-0.1677,-0.1693,-0.1703,-0.1697,-0.1694,-0.1703,-0.1653,-0.1651,-0.1537,-0.1542,-0.1694,-0.1645,-0.1645,-0.1645,-0.1645,0,-0.1212,-0.1251,-0.1312,-0.1382,-0.14,-0.1442,-0.1511,-0.1556,-0.1616,-0.1645,-0.1684,-0.1701,-0.1731,-0.1723,-0.1724,-0.1729,-0.1708,-0.1695,-0.1692,-0.1567,-0.1532,-0.1608,-0.1644,-0.1644,-0.1644,-0.1644,-0.1644,0,-0.1179,-0.1259,-0.1308,-0.1335,-0.1418,-0.1457,-0.1502,-0.1569,-0.1603,-0.1666,-0.1687,-0.1725,-0.1737,-0.1733,-0.1713,-0.1722,-0.1691,-0.1695,-0.1564,-0.1555,-0.1659,-0.1655,-0.1684,-0.1684,-0.1684,-0.1684,-0.1685,0,-0.117,-0.1211,-0.13,-0.1326,-0.1381,-0.1446,-0.1503,-0.1552,-0.1615,-0.164,-0.17,-0.1707,-0.1741,-0.1729,-0.1712,-0.1624,-0.1687,-0.1559,-0.1534,-0.1676,-0.1675,-0.1657,-0.1655,-0.1683,-0.1683,-0.1683,-0.1684,0,-0.1121,-0.1187,-0.1242,-0.1336,-0.1368,-0.1404,-0.1493,-0.1521,-0.1594,-0.1626,-0.1644,-0.1693,-0.1667,-0.1672,-0.1651,-0.1598,-0.1545,-0.1498,-0.1633,-0.1617,-0.141,-0.141,-0.1345,-0.134,-0.1336,-0.1333,-0.133,0,-0.11,-0.1126,-0.123,-0.1258,-0.1304,-0.137,-0.1406,-0.1498,-0.1521,-0.1595,-0.159,-0.1601,-0.1614,-0.1477,-0.1507,-0.1444,-0.1429,-0.1393,-0.1418,-0.1393,-0.1375,-0.1382,-0.1387,-0.1324,-0.1323,-0.1322,-0.1321,0,-0.1047,-0.1094,-0.1136,-0.1193,-0.1242,-0.1286,-0.1345,-0.135,-0.1438,-0.152,-0.1482,-0.1456,-0.1417,-0.1388,-0.1339,-0.1305,-0.1417,-0.1353,-0.1361,-0.1384,-0.1367,-0.1355,-0.1365,-0.1308,-0.131,-0.1311,-0.1312,0,-0.1001,-0.1012,-0.1069,-0.1105,-0.1163,-0.1171,-0.1221,-0.1236,-0.1269,-0.1356,-0.1337,-0.135,-0.1397,-0.1313,-0.1276,-0.1222,-0.1209,-0.1176,-0.1194,-0.1209,-0.1187,-0.1146,-0.0986,0,0,0,0,0,-0.0944,-0.0944,-0.0973,-0.1005,-0.1054,-0.1082,-0.116,-0.1211,-0.1298,-0.123,-0.1279,-0.1237,-0.1176,-0.1189,-0.1101,-0.1213,-0.1215,-0.1107,-0.1188,-0.1233,-0.1248,-0.1235,0,0,0,0,0,0,-0.0907,-0.0932,-0.0937,-0.0905,-0.0903,-0.0941,-0.0982,-0.1047,-0.102,-0.1112,-0.108,-0.1152,-0.1106,-0.119,-0.1069,-0.1071,-0.1095,-0.1128,-0.1124,-0.1224,-0.1238,-0.125,-0.1242,0,0,0,0,0]},{"header":{"parameterUnit":"m.s-1","parameterCategory":2,"la1":30.2991,"la2":30.254,"lo1":-89.0895,"lo2":-89.0444,"dy":0.0017,"dx":0.0017,"nx":28,"ny":28,"refTime":"2026-02-14T03:00:00:Z","depth":"4","parameterNumber":3,"parameterNumberName":"V-component_of_CURRENTS"},"data":[0,0,0,0,0,0,0,0,0,0,0,0,0,0,0,0,0,0,0,0,0,0,0,0,0,0,0,0,0,0,0,0,0,0,0,0,0,0,0,0,0,0,0,0,0,0,0,0,0,0,0,0,0,0,0,0,0,0,-0.0356,-0.0355,0,-0.0338,-0.0338,-0.0337,-0.0323,-0.0323,-0.0323,-0.0323,-0.0266,-0.0264,-0.0263,0,0,0,0,0,0,0,0,0,0,0,0,0,-0.0346,-0.0347,-0.0356,-0.0355,-0.0355,-0.0338,-0.0338,-0.0337,-0.0323,-0.0323,-0.0323,-0.0323,-0.0266,-0.0264,-0.0263,0,0,0,0,0,0,0,0,0,0,0,0,0,-0.0341,-0.0347,-0.0356,-0.0347,-0.0346,-0.0338,-0.0338,-0.0337,-0.0323,-0.0323,-0.0323,-0.0323,-0.0267,-0.0265,-0.0263,-0.0251,0,0,-0.0256,-0.0255,0,0,0,0,0,0,0,0,-0.0341,-0.0341,-0.0348,-0.0347,-0.0346,-0.0333,-0.0313,-0.0307,-0.0323,-0.0331,-0.0323,-0.0323,-0.0285,-0.0281,-0.0278,-0.0249,-0.0246,-0.0256,-0.0254,-0.0253,-0.0253,0,0,0,0,0,0,0,-0.0342,-0.0342,-0.0348,-0.0348,-0.0347,-0.0333,-0.0332,-0.0312,-0.0308,-0.033,-0.0329,-0.0329,-0.0284,-0.028,-0.0276,-0.0245,-0.0256,-0.0254,-0.0252,-0.0252,-0.0197,-0.0197,0,0,0,0,0,0,-0.0347,-0.0342,-0.0348,-0.0347,-0.0344,-0.0333,-0.0333,-0.0337,-0.0309,-0.0305,-0.0329,-0.0328,-0.0284,-0.0279,-0.0274,-0.0256,-0.0253,-0.0251,-0.025,-0.0198,-0.0197,-0.0197,0,0,0,0,0,0,-0.0347,-0.0348,-0.0349,-0.0345,-0.0344,-0.0334,-0.0339,-0.0337,-0.0336,-0.0308,-0.0303,-0.033,-0.0284,-0.0277,-0.026,-0.0254,-0.025,-0.0248,-0.0198,-0.0198,-0.0197,-0.0221,0,0,0,0,0,0,-0.0347,-0.0348,-0.0358,-0.0345,-0.0344,-0.0349,-0.0339,-0.0336,-0.0336,-0.0335,-0.0308,-0.0302,-0.0283,-0.0263,-0.0258,-0.0251,-0.0247,-0.0198,-0.0198,-0.0197,-0.022,-0.0222,-0.0223,0,0,0,0,0,-0.0347,-0.0358,-0.0358,-0.0359,-0.0356,-0.035,-0.0348,-0.034,-0.0336,-0.0338,-0.0319,-0.0303,-0.0258,-0.0262,-0.0255,-0.0247,-0.0198,-0.0198,-0.0197,-0.022,-0.0221,-0.0223,0,0,0,0,0,0,-0.0358,-0.0357,-0.0357,-0.0368,-0.0362,-0.0348,-0.0351,-0.0344,-0.0331,-0.0331,-0.0304,-0.0297,-0.0279,-0.0261,-0.0266,-0.0231,-0.0224,-0.0222,-0.0243,-0.0245,-0.0246,-0.0248,-0.0245,0,0,0,0,0,-0.0366,-0.0375,-0.0368,-0.0377,-0.0376,-0.0365,-0.0363,-0.0357,-0.0343,-0.0338,-0.0319,-0.0296,-0.0272,-0.0258,-0.0239,-0.022,-0.0193,-0.0209,-0.021,-0.0212,-0.0209,-0.0162,-0.0159,-0.0196,-0.0196,-0.0196,0,0,-0.0374,-0.0375,-0.038,-0.0381,-0.0376,-0.0376,-0.0363,-0.0363,-0.0359,-0.0332,-0.0323,-0.0302,-0.027,-0.0249,-0.0239,-0.0233,-0.0188,-0.0211,-0.0212,-0.0209,-0.0161,-0.0158,-0.0154,-0.0196,-0.0196,-0.0196,0,0,-0.0388,-0.0394,-0.0404,-0.0401,-0.0397,-0.0389,-0.0391,-0.0379,-0.0371,-0.0361,-0.0337,-0.0311,-0.0285,-0.0253,-0.0235,-0.0229,-0.0199,-0.0226,-0.0228,-0.0183,-0.018,-0.0176,-0.0143,-0.0136,-0.0222,-0.0222,-0.0222,0,-0.0398,-0.0409,-0.0405,-0.041,-0.041,-0.0396,-0.0401,-0.0391,-0.0375,-0.0364,-0.0363,-0.0308,-0.0283,-0.0241,-0.024,-0.023,-0.0207,-0.0226,-0.0185,-0.018,-0.0176,-0.0143,-0.0135,-0.0224,-0.0223,-0.0223,-0.0223,0,-0.0414,-0.0425,-0.0429,-0.0432,-0.0431,-0.0433,-0.0419,-0.0413,-0.0404,-0.0387,-0.0355,-0.0319,-0.0283,-0.0269,-0.0253,-0.021,-0.0204,-0.0195,-0.0182,-0.0174,-0.0139,-0.0131,-0.0225,-0.0225,-0.0224,-0.0224,0,0,-0.0431,-0.044,-0.0442,-0.045,-0.0444,-0.0445,-0.0437,-0.0422,-0.0414,-0.0389,-0.0368,-0.032,-0.0299,-0.0276,-0.0245,-0.0204,-0.0157,-0.0191,-0.0189,-0.016,-0.0066,-0.0074,-0.0066,-0.0142,-0.0141,-0.014,-0.0056,0,-0.0445,-0.0464,-0.046,-0.0475,-0.0483,-0.0468,-0.0463,-0.0447,-0.0427,-0.0404,-0.0352,-0.0325,-0.0301,-0.0284,-0.0238,-0.0181,-0.0135,-0.0181,-0.0076,-0.0073,-0.0082,-0.0056,-0.0135,-0.0049,-0.0047,-0.0046,-0.0045,0,-0.0459,-0.0471,-0.0492,-0.05,-0.0502,-0.0508,-0.0498,-0.049,-0.0448,-0.043,-0.0386,-0.035,-0.0285,-0.027,-0.0156,-0.0189,-0.0129,-0.0082,-0.0077,-0.0069,-0.0065,-0.0056,-0.0029,-0.003,-0.0031,-0.0032,-0.0033,0,-0.0474,-0.0491,-0.0511,-0.0515,-0.0521,-0.0526,-0.0527,-0.05,-0.0493,-0.0446,-0.0431,-0.0353,-0.0316,-0.0228,-0.0134,-0.0143,-0.0011,-0.0009,0.0046,0.0045,0.0037,0.0032,0.0081,0.0081,0.0081,0.008,0.008,0,-0.0486,-0.0503,-0.0525,-0.0537,-0.0562,-0.0554,-0.0567,-0.0551,-0.0525,-0.0511,-0.0449,-0.0414,-0.0304,-0.0219,-0.0132,-0.0019,-0.0005,0.0054,0.0072,0.0023,0.0016,0.0043,0.0037,0.0084,0.0083,0.0082,0.0082,0,-0.0496,-0.0509,-0.0539,-0.0562,-0.0573,-0.0592,-0.0609,-0.0611,-0.058,-0.0558,-0.0545,-0.0454,-0.0343,-0.0229,-0.0083,-0.0022,0.0089,0.0129,0.0065,0.0076,0.0115,0.0107,0.0197,0.0198,0.0198,0.0199,0.0199,0,-0.0499,-0.0517,-0.0566,-0.0595,-0.061,-0.0639,-0.0658,-0.0644,-0.064,-0.0578,-0.0563,-0.0458,-0.0386,-0.018,-0.0069,0.0099,0.0121,0.0171,0.015,0.0121,0.013,0.0121,0.0113,0.02,0.02,0.02,0.02,0,-0.0508,-0.0533,-0.0561,-0.0623,-0.066,-0.0692,-0.0713,-0.0713,-0.0681,-0.0656,-0.0559,-0.0448,-0.0322,-0.0174,-0.0045,0.0074,0.0132,0.0176,0.0176,0.0156,0.0125,0.0132,0.0123,0.0202,0.0201,0.0201,0.0201,0,-0.0516,-0.0545,-0.0593,-0.0642,-0.0696,-0.0727,-0.0737,-0.0715,-0.07,-0.0622,-0.059,-0.0444,-0.0359,-0.0185,-0.0065,0.0048,0.0072,0.01,0.0104,0.0103,0.0045,-0.0011,0.005,0,0,0,0,0,-0.0518,-0.0555,-0.0608,-0.0664,-0.0718,-0.0743,-0.0763,-0.076,-0.0729,-0.0661,-0.062,-0.0493,-0.0299,-0.0213,-0.0099,-0.0075,0.0073,0.0059,0.0102,0.0211,0.0209,0.0155,0,0,0,0,0,0,-0.0523,-0.0576,-0.0605,-0.0669,-0.0709,-0.0758,-0.0771,-0.0752,-0.0703,-0.0654,-0.0546,-0.0475,-0.0287,-0.0359,-0.0098,-0.0065,-0.0026,0.0155,0.0157,0.0212,0.021,0.0209,0.0152,0,0,0,0,0]}]]